Gustavus, AK

8:54 AM AKDT on April 27, 2017 (GMT -0800)
Gustavus

Weather History for PAGS - December, 2012

Change the Weather History Date:

Friday, December 28, 2012

  Actual Average Record
Temperature  
Mean Temperature 32 °F -  
Max Temperature 33 °F 30 °F 48 °F (2005)
Min Temperature 30 °F 24 °F -9 °F (1954)
Degree Days  
Heating Degree Days 34    
Moisture  
Dew Point 30 °F    
Average Humidity 87    
Maximum Humidity 93    
Minimum Humidity 86    
Precipitation  
Precipitation 0.00 in - - ()
Sea Level Pressure  
Sea Level Pressure 29.84 in    
Wind  
Wind Speed 1 mph (NNW)    
Max Wind Speed 6 mph    
Max Gust Speed -    
Visibility 9 miles    
Events      
Averages and records for this station are not official NWS values.
T = Trace of Precipitation, MM = Missing Value Source: NWS Daily Summary

Daily Weather History Graph

Daily Weather History Graph

Search for Another Location

Airport or City:

Trip Planner

Search our weather history database for the weather conditions in past years. The results will help you decide how hot, cold, wet, or windy it might be!

Date:

Astronomy

Dec. 28, 2012 Rise Set
Actual Time 8:52 AM AKST 3:17 PM AKST
Civil Twilight 7:59 AM AKST 4:10 PM AKST
Nautical Twilight 7:06 AM AKST 5:03 PM AKST
Astronomical Twilight 6:17 AM AKST 5:52 PM AKST
Moon 4:19 PM AKST (12/28) 8:36 AM AKST (12/28)
Length of Visible Light 8h 10m
Length of Day
6h 25m
Full, 100% of the Moon is Illuminated
Dec 28
Full
Jan 4
Last Quarter
Jan 11
New
Jan 18
First Quarter
Jan 26
Full

Hourly Weather History & Observations

Time (AKST) Temp. Windchill Dew Point Humidity Pressure Visibility Wind Dir Wind Speed Gust Speed Precip Events Conditions
12:16 AM 30.2 °F - 26.6 °F 86% 29.70 in 9.0 mi Calm Calm - N/A   Overcast
12:36 AM 30.2 °F - 26.6 °F 86% 29.70 in 5.0 mi Calm Calm - N/A   Overcast
12:56 AM 30.2 °F - 26.6 °F 86% 29.70 in 10.0 mi Calm Calm - N/A   Overcast
1:16 AM 30.2 °F - 26.6 °F 86% 29.70 in 10.0 mi Calm Calm - N/A   Overcast
1:36 AM 30.2 °F - 26.6 °F 86% 29.71 in 10.0 mi Calm Calm - N/A   Overcast
1:56 AM 32.0 °F - 28.4 °F 87% 29.71 in 10.0 mi Calm Calm - N/A   Overcast
2:16 AM 32.0 °F - 28.4 °F 87% 29.71 in 10.0 mi Calm Calm - N/A   Overcast
2:36 AM 32.0 °F - 28.4 °F 87% 29.71 in 10.0 mi Calm Calm - N/A   Overcast
2:56 AM 32.0 °F - 28.4 °F 87% 29.71 in 10.0 mi Calm Calm - N/A   Mostly Cloudy
3:16 AM 33.8 °F - 30.2 °F 87% 29.71 in 10.0 mi Calm Calm - N/A   Overcast
3:36 AM 32.0 °F - 30.2 °F 93% 29.71 in 10.0 mi Calm Calm - N/A   Overcast
3:56 AM 32.0 °F - 28.4 °F 87% 29.71 in 10.0 mi Calm Calm - N/A   Overcast
4:16 AM 33.8 °F - 30.2 °F 87% 29.71 in 10.0 mi Calm Calm - N/A   Overcast
4:36 AM 33.8 °F - 30.2 °F 87% 29.72 in 10.0 mi Calm Calm - N/A   Overcast
4:56 AM 33.8 °F - 30.2 °F 87% 29.72 in 10.0 mi Calm Calm - N/A   Overcast
5:16 AM 33.8 °F - 30.2 °F 87% 29.72 in 10.0 mi Calm Calm - N/A   Overcast
5:36 AM 33.8 °F - 30.2 °F 87% 29.72 in 10.0 mi Calm Calm - N/A   Overcast
5:56 AM 33.8 °F - 30.2 °F 87% 29.72 in 10.0 mi Calm Calm - N/A   Overcast
6:16 AM 33.8 °F - 30.2 °F 87% 29.72 in 10.0 mi Calm Calm - N/A   Overcast
6:36 AM 33.8 °F - 30.2 °F 87% 29.73 in 9.0 mi Calm Calm - N/A   Overcast
6:56 AM 33.8 °F - 30.2 °F 87% 29.74 in 8.0 mi Calm Calm - N/A   Overcast
7:16 AM 33.8 °F - 30.2 °F 87% 29.74 in 3.0 mi Calm Calm - N/A   Overcast
7:36 AM 33.8 °F - 30.2 °F 87% 29.74 in 3.0 mi Calm Calm - N/A   Overcast
7:56 AM 33.8 °F - 30.2 °F 87% 29.75 in 4.0 mi Calm Calm - N/A   Overcast
8:16 AM 33.8 °F - 30.2 °F 87% 29.76 in 6.0 mi Calm Calm - N/A   Overcast
8:36 AM 33.8 °F - 30.2 °F 87% 29.77 in 5.0 mi Calm Calm - N/A   Overcast
8:56 AM 33.8 °F - 30.2 °F 87% 29.77 in 5.0 mi Calm Calm - N/A   Overcast
9:16 AM 33.8 °F - 30.2 °F 87% 29.78 in 9.0 mi Calm Calm - N/A   Overcast
9:36 AM 33.8 °F - 30.2 °F 87% 29.79 in 10.0 mi Calm Calm - N/A   Overcast
9:56 AM 33.8 °F - 30.2 °F 87% 29.80 in 10.0 mi Calm Calm - N/A   Overcast
10:16 AM 33.8 °F - 30.2 °F 87% 29.79 in 10.0 mi Calm Calm - N/A   Overcast
10:36 AM 33.8 °F - 30.2 °F 87% 29.80 in 10.0 mi Calm Calm - N/A   Overcast
10:56 AM 33.8 °F - 30.2 °F 87% 29.80 in 10.0 mi Calm Calm - N/A   Overcast
11:16 AM 33.8 °F - 30.2 °F 87% 29.81 in 10.0 mi Calm Calm - N/A   Overcast
11:36 AM 33.8 °F - 30.2 °F 87% 29.82 in 10.0 mi Calm Calm - N/A   Overcast
11:56 AM 33.8 °F 29.6 °F 30.2 °F 87% 29.82 in 10.0 mi NNW 4.6 mph - N/A   Overcast
12:16 PM 33.8 °F 30.8 °F 30.2 °F 87% 29.83 in 10.0 mi NNW 3.5 mph - N/A   Mostly Cloudy
12:36 PM 33.8 °F 30.8 °F 30.2 °F 87% 29.84 in 10.0 mi NNW 3.5 mph - N/A   Overcast
12:56 PM 33.8 °F - 30.2 °F 87% 29.84 in 10.0 mi Calm Calm - N/A   Overcast
1:16 PM 33.8 °F 28.6 °F 30.2 °F 87% 29.85 in 3.0 mi NNW 5.8 mph - N/A   Overcast
1:36 PM 33.8 °F 30.8 °F 30.2 °F 87% 29.86 in 10.0 mi NNW 3.5 mph - N/A   Mostly Cloudy
1:56 PM 33.8 °F 30.8 °F 30.2 °F 87% 29.86 in 10.0 mi NNW 3.5 mph - N/A   Overcast
2:16 PM 33.8 °F 30.8 °F 30.2 °F 87% 29.86 in 10.0 mi NNW 3.5 mph - N/A   Overcast
2:36 PM 33.8 °F 29.6 °F 30.2 °F 87% 29.86 in 10.0 mi NW 4.6 mph - N/A   Overcast
2:56 PM 33.8 °F - 30.2 °F 87% 29.87 in 10.0 mi Calm Calm - N/A   Overcast
3:16 PM 33.8 °F - 30.2 °F 87% 29.88 in 10.0 mi Calm Calm - N/A   Overcast
3:36 PM 33.8 °F 30.8 °F 30.2 °F 87% 29.89 in 10.0 mi NW 3.5 mph - N/A   Overcast
3:56 PM 33.8 °F 28.6 °F 30.2 °F 87% 29.89 in 10.0 mi NNW 5.8 mph - N/A   Overcast
4:16 PM 33.8 °F 28.6 °F 30.2 °F 87% 29.89 in 10.0 mi NNW 5.8 mph - N/A   Overcast
4:36 PM 33.8 °F 28.6 °F 30.2 °F 87% 29.90 in 10.0 mi NW 5.8 mph - N/A   Overcast
4:56 PM 33.8 °F 29.6 °F 30.2 °F 87% 29.90 in 10.0 mi NNW 4.6 mph - N/A   Overcast
5:16 PM 33.8 °F - 30.2 °F 87% 29.91 in 10.0 mi Calm Calm - N/A   Overcast
5:36 PM 33.8 °F 30.8 °F 30.2 °F 87% 29.91 in 5.0 mi NW 3.5 mph - N/A   Overcast
5:56 PM 33.8 °F - 30.2 °F 87% 29.92 in 5.0 mi Calm Calm - N/A   Overcast
6:16 PM 33.8 °F 30.8 °F 30.2 °F 87% 29.93 in 5.0 mi NNW 3.5 mph - N/A   Overcast
6:36 PM 33.8 °F 29.6 °F 30.2 °F 87% 29.93 in 3.0 mi NNW 4.6 mph - N/A   Overcast
6:56 PM 33.8 °F 29.6 °F 30.2 °F 87% 29.94 in 7.0 mi NNW 4.6 mph - N/A   Overcast
7:16 PM 33.8 °F 30.8 °F 30.2 °F 87% 29.94 in 10.0 mi NW 3.5 mph - N/A   Overcast
7:36 PM 33.8 °F - 30.2 °F 87% 29.95 in 10.0 mi Calm Calm - N/A   Overcast
7:56 PM 33.8 °F - 30.2 °F 87% 29.96 in 9.0 mi Calm Calm - N/A   Overcast
8:16 PM 33.8 °F - 30.2 °F 87% 29.97 in 8.0 mi Calm Calm - N/A   Overcast
8:36 PM 33.8 °F - 30.2 °F 87% 29.98 in 6.0 mi Calm Calm - N/A   Overcast
8:56 PM 33.8 °F - 30.2 °F 87% 29.98 in 9.0 mi Calm Calm - N/A   Overcast
9:16 PM 33.8 °F - 30.2 °F 87% 29.99 in 10.0 mi Calm Calm - N/A   Overcast
9:36 PM 33.8 °F - 30.2 °F 87% 30.00 in 10.0 mi Calm Calm - N/A   Overcast
9:56 PM 33.8 °F - 30.2 °F 87% 30.01 in 10.0 mi Calm Calm - N/A   Overcast
10:16 PM 33.8 °F - 30.2 °F 87% 30.02 in 9.0 mi Calm Calm - N/A   Overcast
10:36 PM 33.8 °F - 30.2 °F 87% 30.02 in 10.0 mi Calm Calm - N/A   Overcast
10:56 PM 33.8 °F - 30.2 °F 87% 30.02 in 10.0 mi Calm Calm - N/A   Overcast
11:16 PM 33.8 °F - 30.2 °F 87% 30.02 in 10.0 mi Calm Calm - N/A   Overcast
11:36 PM 33.8 °F - 30.2 °F 87% 30.03 in 10.0 mi Calm Calm - N/A   Overcast
11:56 PM 33.8 °F - 30.2 °F 87% 30.04 in 10.0 mi Calm Calm - N/A   Overcast